Location: New Mesquite
(33.1168°N, 96.4336°W)
Time: 14:25:20
(UTC+00:00)

Meteor 1-27 Rocket - Pass Details

Date: 06 July 2022
Orbit: 829 x 911 km, 81.3° (Epoch: 18 August)

Event Time Altitude Azimuth Distance (km) Brightness Sun altitude
Rises 08:59:53 0° 348° (NNW) 3,409 7.4 -23.8°
Reaches altitude 10° 09:02:20 10° 345° (NNW) 2,461 6.6 -23.5°
Maximum altitude 09:07:50 65° 265° (W) 915 3.6 -22.8°
Enters shadow 09:08:57 52° 213° (SSW) 1,026 3.7 -22.6°
